Point Lay, AK

2:53 AM AKDT on June 23, 2017 (GMT -0800)
Point Lay

Weather History for PPIZ - October, 2012

Change the Weather History Date:

Friday, October 26, 2012

  Actual Average Record
Temperature  
Mean Temperature 30 °F -  
Max Temperature 31 °F 16 °F 37 °F (2016)
Min Temperature 29 °F 10 °F -9 °F (1996)
Degree Days  
Heating Degree Days 35    
Moisture  
Dew Point 26 °F    
Average Humidity 84    
Maximum Humidity 89    
Minimum Humidity 79    
Precipitation  
Precipitation 0.00 in - - ()
Sea Level Pressure  
Sea Level Pressure 30.36 in    
Wind  
Wind Speed 13 mph (SSW)    
Max Wind Speed 17 mph    
Max Gust Speed -    
Visibility 10 miles    
Events      
Averages and records for this station are not official NWS values.
T = Trace of Precipitation, MM = Missing Value Source: NWS Daily Summary

Daily Weather History Graph

Daily Weather History Graph

Search for Another Location

Airport or City:

Trip Planner

Search our weather history database for the weather conditions in past years. The results will help you decide how hot, cold, wet, or windy it might be!

Date:

Astronomy

Oct. 26, 2012 Rise Set
Actual Time 10:55 AM AKDT 6:15 PM AKDT
Civil Twilight 9:46 AM AKDT 7:23 PM AKDT
Nautical Twilight 8:35 AM AKDT 8:34 PM AKDT
Astronomical Twilight 7:25 AM AKDT 9:44 PM AKDT
Moon 5:39 PM AKDT (10/26) 6:47 AM AKDT (10/26)
Length of Visible Light 9h 36m
Length of Day
7h 20m
Waxing Gibbous, 92% of the Moon is Illuminated
Oct 26
Waxing Gibbous
Oct 29
Full
Nov 6
Last Quarter
Nov 13
New
Nov 20
First Quarter

Hourly Weather History & Observations

Time (AKDT) Temp. Windchill Dew Point Humidity Pressure Visibility Wind Dir Wind Speed Gust Speed Precip Events Conditions
12:56 AM 31.1 °F 19.7 °F 27.1 °F 85% 30.38 in 10.0 mi SW 17.3 mph - N/A   Clear
1:56 AM 31.1 °F 20.1 °F 27.1 °F 85% 30.38 in 10.0 mi SSW 16.1 mph - N/A   Clear
2:56 AM 31.1 °F 20.5 °F 27.1 °F 85% 30.39 in 10.0 mi SW 15.0 mph - N/A   Overcast
3:56 AM 30.0 °F 22.4 °F 27.1 °F 89% 30.39 in 10.0 mi SSW 8.1 mph - N/A   Overcast
4:56 AM 30.0 °F 21.1 °F 26.1 °F 85% 30.38 in 10.0 mi SSW 10.4 mph - N/A   Mostly Cloudy
5:56 AM 30.0 °F 21.1 °F 25.2 °F 82% 30.38 in 10.0 mi SW 10.4 mph - N/A   Partly Cloudy
6:56 AM 30.0 °F 20.5 °F 25.2 °F 82% 30.38 in 10.0 mi SSW 11.5 mph - N/A   Partly Cloudy
7:56 AM 31.1 °F 22.4 °F 26.1 °F 82% 30.38 in 10.0 mi SW 10.4 mph - N/A   Overcast
8:56 AM 29.1 °F 25.4 °F 26.1 °F 88% 30.37 in 10.0 mi South 3.5 mph - N/A   Overcast
9:56 AM 29.1 °F 22.1 °F 26.1 °F 88% 30.37 in 10.0 mi South 6.9 mph - N/A   Overcast
10:56 AM 31.1 °F 21.4 °F 25.2 °F 79% 30.38 in 10.0 mi SSW 12.7 mph - N/A   Mostly Cloudy
11:56 AM 30.0 °F 20.0 °F 24.1 °F 79% 30.38 in 10.0 mi SSW 12.7 mph - N/A   Partly Cloudy
12:56 PM 30.0 °F 20.5 °F 25.2 °F 82% 30.38 in 10.0 mi SSW 11.5 mph - N/A   Partly Cloudy
1:56 PM 30.0 °F 20.0 °F 24.1 °F 79% 30.38 in 10.0 mi SSW 12.7 mph - N/A   Partly Cloudy
2:56 PM 30.0 °F 19.5 °F 25.2 °F 82% 30.37 in 10.0 mi SSW 13.8 mph - N/A   Partly Cloudy
3:56 PM 30.0 °F 18.7 °F 24.1 °F 79% 30.38 in 10.0 mi SSW 16.1 mph - N/A   Clear
4:56 PM 30.0 °F 19.5 °F 25.2 °F 82% 30.36 in 10.0 mi SSW 13.8 mph - N/A   Scattered Clouds
5:10 PM 30.2 °F 19.3 °F 24.8 °F 80% 30.35 in 10.0 mi SSW 15.0 mph - N/A   Mostly Cloudy
5:32 PM 30.2 °F 21.3 °F 26.6 °F 86% 30.34 in 10.0 mi SSW 10.4 mph - N/A   Overcast
5:56 PM 30.0 °F 21.1 °F 26.1 °F 85% 30.35 in 10.0 mi SSW 10.4 mph - N/A   Overcast
6:56 PM 30.0 °F 20.0 °F 26.1 °F 85% 30.35 in 10.0 mi SSW 12.7 mph - N/A   Overcast
7:56 PM 30.0 °F 19.5 °F 26.1 °F 85% 30.35 in 10.0 mi SSW 13.8 mph - N/A   Overcast
8:46 PM 30.2 °F 20.8 °F 26.6 °F 86% 30.32 in 10.0 mi SSW 11.5 mph - N/A   Overcast
8:56 PM 30.0 °F 21.7 °F 27.1 °F 89% 30.34 in 10.0 mi SSW 9.2 mph - N/A   Overcast
9:56 PM 30.2 °F 18.9 °F 26.6 °F 86% 30.32 in 10.0 mi SW 16.1 mph - N/A   Overcast
10:56 PM 31.1 °F 21.4 °F 27.1 °F 85% 30.33 in 10.0 mi SW 12.7 mph - N/A   Overcast
11:56 PM 31.1 °F 20.1 °F 27.1 °F 85% 30.32 in 10.0 mi SW 16.1 mph - N/A   Overcast